Београд, метеограме

Београд: време по сату
Четвтак, 06 Аугуста
Време Падавине Температура Осећа се Притисак Влажност Ветар
10:00 0.01 мм +23.3° +24.2° 754.000 мм.ж.с 62% 3 м/с, Ј
11:00 0 мм +24.4° +25.2° 754.000 мм.ж.с 57% 2 м/с, Ј
12:00 0 мм +25.6° +26.2° 754.000 мм.ж.с 52% 2 м/с, СЗ
13:00 0 мм +26.8° +27.2° 753.000 мм.ж.с 47% 2 м/с, С
14:00 0 мм +27.2° +27.6° 753.000 мм.ж.с 46% 3 м/с, С
15:00 0 мм +27.7° +28.1° 753.000 мм.ж.с 45% 3 м/с, С
16:00 0 мм +28.1° +28.5° 753.000 мм.ж.с 44% 3 м/с, С
17:00 0.04 мм +26.4° +27° 753.000 мм.ж.с 49% 3 м/с, С
18:00 0.04 мм +24.7° +25.4° 753.000 мм.ж.с 55% 3 м/с, С
19:00 0.04 мм +23° +23.9° 753.000 мм.ж.с 61% 3 м/с, С
20:00 0 мм +22.2° +23° 753.000 мм.ж.с 64% 2 м/с, С
21:00 0 мм +21.3° +22.2° 753.000 мм.ж.с 67% 2 м/с, С
22:00 0 мм +20.4° +21.3° 753.000 мм.ж.с 70% 2 м/с, С
23:00 0 мм +20.3° +21.2° 753.000 мм.ж.с 69% 2 м/с, С
Петак, 07 Аугуста
Време Падавине Температура Осећа се Притисак Влажност Ветар
00:00 0 мм +20.3° +21.2° 753.000 мм.ж.с 69% 1 м/с, С
01:00 0 мм +20.3° +21.2° 753.000 мм.ж.с 69% 1 м/с, СИ
02:00 0 мм +19.7° +20.5° 753.000 мм.ж.с 69% 1 м/с, СИ
03:00 0 мм +19.2° +19.9° 753.000 мм.ж.с 69% 1 м/с, И
04:00 0 мм +18.7° +19.3° 753.000 мм.ж.с 68% 1 м/с, ЈИ
05:00 0 мм +19.8° +20.5° 754.000 мм.ж.с 66% 1 м/с, ЈИ
06:00 0 мм +20.9° +21.6° 754.000 мм.ж.с 63% 1 м/с, ЈИ
07:00 0 мм +22° +22.7° 754.000 мм.ж.с 60% 1 м/с, ЈИ
08:00 0.01 мм +24° +24.5° 754.000 мм.ж.с 54% 2 м/с, ЈИ
09:00 0.01 мм +26° +26.3° 755.000 мм.ж.с 48% 3 м/с, И
10:00 0.01 мм +27.9° +28.1° 755.000 мм.ж.с 43% 3 м/с, И
11:00 0.05 мм +28.3° +28.5° 754.000 мм.ж.с 42% 4 м/с, И
12:00 0.05 мм +28.7° +28.9° 754.000 мм.ж.с 42% 4 м/с, И
13:00 0.05 мм +29.1° +29.3° 754.000 мм.ж.с 42% 4 м/с, И
14:00 0.04 мм +28.6° +29° 754.000 мм.ж.с 44% 4 м/с, СИ
15:00 0.04 мм +28.2° +28.8° 753.000 мм.ж.с 47% 5 м/с, СИ
16:00 0.04 мм +27.7° +28.5° 753.000 мм.ж.с 50% 5 м/с, С
17:00 0.78 мм +25.8° +26.9° 753.000 мм.ж.с 58% 4 м/с, СИ
18:00 0.78 мм +23.8° +25.2° 753.000 мм.ж.с 66% 3 м/с, СИ
19:00 0.78 мм +21.9° +23.4° 753.000 мм.ж.с 74% 2 м/с, И
20:00 0.41 мм +21.3° +22.8° 754.000 мм.ж.с 76% 3 м/с, ЈИ
21:00 0.41 мм +20.8° +22.2° 754.000 мм.ж.с 78% 3 м/с, ЈИ
22:00 0.41 мм +20.2° +21.7° 754.000 мм.ж.с 81% 3 м/с, ЈИ
23:00 0.82 мм +19.8° +21.4° 754.000 мм.ж.с 84% 2 м/с, ЈИ
Субота, 08 Аугуста
Време Падавине Температура Осећа се Притисак Влажност Ветар
00:00 0.82 мм +19.4° +21.1° 754.000 мм.ж.с 87% 1 м/с, Ј
01:00 0.82 мм +19° +20.9° 754.000 мм.ж.с 91% 1 м/с, СЗ
02:00 0.12 мм +18.6° +20.3° 754.000 мм.ж.с 91% 1 м/с, С
03:00 0.12 мм +18.1° +19.8° 754.000 мм.ж.с 92% 1 м/с, С
04:00 0.12 мм +17.7° +19.3° 754.000 мм.ж.с 93% 1 м/с, С
05:00 0.14 мм +18.6° +20.3° 754.000 мм.ж.с 90% 1 м/с, С
06:00 0.14 мм +19.5° +21.3° 754.000 мм.ж.с 88% 2 м/с, С
07:00 0.14 мм +20.4° +22.3° 755.000 мм.ж.с 85% 2 м/с, С
08:00 0.11 мм +22.3° +24° 755.000 мм.ж.с 77% 2 м/с, С
09:00 0.11 мм +24.1° +25.8° 755.000 мм.ж.с 70% 2 м/с, С

Такође

Meteograms hourly weather Мапе времена Преглед времена
Meteograms hourly weather Мапе времена Преглед времена
 
Време у Србији:
О проjекту
© meteoprog.rs 2003-2020.
Meteoprog.ua - погода в Украине 0.0692
sitemap